GW6140 Weather Reports


time (UTC)temp
F
wind
direction
speed
knots
gust
knots
rain 1hr
in
rain 24hr
in
rain mn
in
humidity
%
barometer
mb
20260506201644 78 242 21.7 33.0 0.00 0.00 0.00 11 997.0
20260506201145 78 233 22.6 28.7 0.00 0.00 0.00 10 997.0
20260506200646 78 261 23.5 26.9 0.00 0.00 0.00 10 997.0
20260506200145 78 203 17.4 28.7 0.00 0.00 0.00 11 997.0
20260506195645 78 256 22.6 26.9 0.00 0.00 0.00 9 998.0
20260506195145 77 257 15.6 20.0 0.00 0.00 0.00 11 998.0
20260506194648 77 249 23.5 27.8 0.00 0.00 0.00 10 998.0
20260506194146 77 221 20.9 26.1 0.00 0.00 0.00 11 998.0
20260506193646 77 252 21.7 32.2 0.00 0.00 0.00 9 998.0
20260506193148 77 210 13.9 15.6 0.00 0.00 0.00 11 998.0
20260506192646 77 201 17.4 28.7 0.00 0.00 0.00 11 998.0
20260506192147 76 248 20.9 25.2 0.00 0.00 0.00 11 998.0
20260506191646 76 244 20.9 27.8 0.00 0.00 0.00 11 998.0
20260506191146 76 266 20.0 33.9 0.00 0.00 0.00 10 999.0
20260506190646 76 242 21.7 30.4 0.00 0.00 0.00 12 999.0
20260506190145 76 226 21.7 35.6 0.00 0.00 0.00 11 999.0
20260506185207 76 224 19.1 27.8 0.00 0.00 0.00 13 998.0
20260506184645 75 247 18.2 21.7 0.00 0.00 0.00 14 999.0
20260506184145 75 271 14.8 23.5 0.00 0.00 0.00 13 999.0
20260506183646 75 277 13.0 20.0 0.00 0.00 0.00 14 1000.0
20260506183144 75 241 19.1 25.2 0.00 0.00 0.00 14 1000.0
20260506182645 75 233 17.4 22.6 0.00 0.00 0.00 14 1000.0
20260506182145 74 241 16.5 20.0 0.00 0.00 0.00 14 1000.0
20260506181644 74 220 13.0 19.1 0.00 0.00 0.00 16 1000.0
20260506181145 74 251 20.9 26.1 0.00 0.00 0.00 16 1000.0
20260506180644 74 244 14.8 20.0 0.00 0.00 0.00 15 1001.0
20260506180147 73 263 14.8 25.2 0.00 0.00 0.00 15 1000.0
20260506175645 73 287 13.0 17.4 0.00 0.00 0.00 18 1001.0
20260506175147 72 250 12.2 15.6 0.00 0.00 0.00 18 1001.0
20260506174645 72 233 10.4 18.2 0.00 0.00 0.00 19 1001.0
20260506174145 72 268 14.8 23.5 0.00 0.00 0.00 18 1001.0
20260506173645 72 221 11.3 17.4 0.00 0.00 0.00 19 1001.0
20260506173145 71 208 8.7 17.4 0.00 0.00 0.00 20 1002.0
20260506172645 71 284 13.0 15.6 0.00 0.00 0.00 20 1002.0
20260506172145 71 273 12.2 20.9 0.00 0.00 0.00 18 1002.0
20260506171646 70 233 10.4 13.0 0.00 0.00 0.00 21 1002.0
20260506171144 70 240 14.8 18.2 0.00 0.00 0.00 21 1002.0
20260506170645 70 264 16.5 20.9 0.00 0.00 0.00 21 1002.0
20260506170146 70 222 13.9 15.6 0.00 0.00 0.00 21 1002.0
20260506165644 69 222 13.9 20.9 0.00 0.00 0.00 21 1003.0
20260506165147 69 229 13.9 19.1 0.00 0.00 0.00 22 1003.0
20260506164645 68 238 13.9 14.8 0.00 0.00 0.00 26 1003.0
20260506164145 68 257 13.9 18.2 0.00 0.00 0.00 24 1003.0
20260506163644 68 258 8.7 13.9 0.00 0.00 0.00 25 1003.0
20260506163145 67 259 12.2 13.9 0.00 0.00 0.00 25 1004.0
20260506162645 67 260 13.9 19.1 0.00 0.00 0.00 25 1004.0
20260506162145 66 204 13.0 14.8 0.00 0.00 0.00 27 1004.0
20260506161646 66 266 8.7 13.9 0.00 0.00 0.00 28 1004.0
20260506161144 66 274 8.7 13.9 0.00 0.00 0.00 29 1004.0
20260506160645 66 288 13.9 19.1 0.00 0.00 0.00 28 1004.0
20260506160147 65 251 7.8 14.8 0.00 0.00 0.00 28 1004.0
20260506155645 65 245 17.4 22.6 0.00 0.00 0.00 28 1004.0
20260506155146 65 240 19.1 20.9 0.00 0.00 0.00 30 1004.0
20260506154645 65 224 13.9 20.0 0.00 0.00 0.00 30 1005.0
20260506154145 64 246 15.6 20.9 0.00 0.00 0.00 30 1004.0
20260506153645 64 251 14.8 20.9 0.00 0.00 0.00 30 1005.0
20260506153145 64 249 15.6 23.5 0.00 0.00 0.00 30 1005.0
20260506152645 64 231 13.0 21.7 0.00 0.00 0.00 32 1005.0
20260506152145 64 228 13.9 19.1 0.00 0.00 0.00 32 1005.0
20260506151645 63 256 11.3 21.7 0.00 0.00 0.00 33 1005.0
20260506151145 63 237 13.0 20.0 0.00 0.00 0.00 33 1005.0
20260506150646 63 254 14.8 20.0 0.00 0.00 0.00 33 1005.0
20260506150150 62 240 14.8 22.6 0.00 0.00 0.00 33 1006.0
20260506145646 62 248 14.8 19.1 0.00 0.00 0.00 35 1006.0
20260506145145 62 254 13.0 19.1 0.00 0.00 0.00 35 1006.0
20260506144645 61 247 13.9 18.2 0.00 0.00 0.00 36 1006.0
20260506144146 61 240 11.3 14.8 0.00 0.00 0.00 38 1006.0
20260506143644 60 239 12.2 15.6 0.00 0.00 0.00 38 1007.0
20260506143146 59 239 3.5 6.1 0.00 0.00 0.00 41 1007.0
20260506142645 59 322 1.7 2.6 0.00 0.00 0.00 42 1007.0
20260506142145 58 4 3.5 6.1 0.00 0.00 0.00 41 1007.0
20260506141645 58 11 4.3 6.1 0.00 0.00 0.00 43 1008.0
20260506141145 57 298 2.6 4.3 0.00 0.00 0.00 44 1008.0
20260506140645 56 358 0.9 1.7 0.00 0.00 0.00 45 1008.0
20260506140145 55 3 1.7 1.7 0.00 0.00 0.00 47 1009.0
20260506135645 55 30 0.9 1.7 0.00 0.00 0.00 48 1009.0
20260506135145 54 356 3.5 4.3 0.00 0.00 0.00 49 1009.0
20260506134644 53 11 1.7 1.7 0.00 0.00 0.00 50 1010.0
20260506134145 52 354 1.7 1.7 0.00 0.00 0.00 52 1010.0
20260506133646 52 112 1.7 1.7 0.00 0.00 0.00 52 1010.0
20260506133145 51 97 2.6 2.6 0.00 0.00 0.00 53 1010.0
20260506132645 51 155 1.7 2.6 0.00 0.00 0.00 53 1011.0
20260506132144 50 158 3.5 4.3 0.00 0.00 0.00 55 1011.0
20260506131646 49 191 4.3 6.1 0.00 0.00 0.00 57 1011.0
20260506131145 48 209 7.8 8.7 0.00 0.00 0.00 56 1012.0
20260506130645 48 225 6.1 8.7 0.00 0.00 0.00 57 1012.0
20260506130146 47 222 7.0 9.6 0.00 0.00 0.00 56 1012.0
20260506125645 47 222 6.1 8.7 0.00 0.00 0.00 55 1012.0
20260506125144 47 243 5.2 7.8 0.00 0.00 0.00 55 1012.0
20260506124645 47 223 5.2 7.0 0.00 0.00 0.00 56 1012.0
20260506124145 47 227 7.0 8.7 0.00 0.00 0.00 56 1012.0
20260506123646 47 204 5.2 8.7 0.00 0.00 0.00 56 1012.0
20260506123146 47 229 6.1 8.7 0.00 0.00 0.00 54 1011.0
20260506122645 48 190 5.2 6.1 0.00 0.00 0.00 54 1011.0
20260506122145 48 202 4.3 7.0 0.00 0.00 0.00 53 1011.0
20260506121645 49 236 5.2 6.1 0.00 0.00 0.00 52 1011.0
20260506121146 49 215 4.3 5.2 0.00 0.00 0.00 53 1010.0
20260506120645 49 228 0.9 1.7 0.00 0.00 0.00 52 1010.0
20260506120145 49 137 0.9 1.7 0.00 0.00 0.00 52 1011.0
20260506115645 49 185 1.7 1.7 0.00 0.00 0.00 51 1011.0
20260506115145 49 203 0.0 0.9 0.00 0.00 0.00 51 1010.0
20260506114645 49 77 0.0 0.9 0.00 0.00 0.00 52 1011.0
20260506114145 49 66 0.9 0.9 0.00 0.00 0.00 51 1010.0
20260506113645 49 68 3.5 4.3 0.00 0.00 0.00 52 1010.0
20260506113147 49 78 4.3 5.2 0.00 0.00 0.00 51 1010.0
20260506112647 49 47 1.7 2.6 0.00 0.00 0.00 52 1010.0
20260506112150 49 22 1.7 2.6 0.00 0.00 0.00 52 1010.0
20260506111647 49 57 4.3 6.1 0.00 0.00 0.00 51 1011.0
20260506111147 49 33 3.5 5.2 0.00 0.00 0.00 51 1010.0
20260506110646 50 67 1.7 2.6 0.00 0.00 0.00 50 1010.0
20260506110147 50 242 2.6 2.6 0.00 0.00 0.00 50 1010.0
20260506105646 50 242 4.3 6.1 0.00 0.00 0.00 50 1010.0
20260506105146 50 263 4.3 6.1 0.00 0.00 0.00 50 1009.0
20260506104645 50 235 5.2 8.7 0.00 0.00 0.00 51 1009.0
20260506104146 50 239 4.3 7.8 0.00 0.00 0.00 51 1009.0
20260506103647 50 245 5.2 7.8 0.00 0.00 0.00 51 1009.0
20260506103146 51 231 8.7 13.0 0.00 0.00 0.00 51 1009.0
20260506102647 51 223 7.0 9.6 0.00 0.00 0.00 51 1009.0
20260506102145 51 242 7.0 7.8 0.00 0.00 0.00 51 1009.0
20260506101646 51 236 7.8 12.2 0.00 0.00 0.00 51 1009.0
20260506101147 51 236 9.6 12.2 0.00 0.00 0.00 51 1009.0
20260506100647 51 241 8.7 13.0 0.00 0.00 0.00 51 1009.0
20260506100145 51 243 8.7 11.3 0.00 0.00 0.00 51 1009.0
20260506095645 51 243 9.6 12.2 0.00 0.00 0.00 51 1009.0
20260506095144 51 241 9.6 12.2 0.00 0.00 0.00 51 1009.0
20260506094645 51 250 9.6 18.2 0.00 0.00 0.00 52 1009.0
20260506094145 51 221 7.8 8.7 0.00 0.00 0.00 51 1009.0
20260506093645 51 242 7.8 12.2 0.00 0.00 0.00 51 1009.0
20260506093144 51 236 7.8 12.2 0.00 0.00 0.00 51 1009.0
20260506092644 51 237 7.8 11.3 0.00 0.00 0.00 50 1009.0
20260506092145 51 245 8.7 13.0 0.00 0.00 0.00 49 1009.0
20260506091644 51 231 7.8 11.3 0.00 0.00 0.00 49 1009.0
20260506091146 52 240 7.8 11.3 0.00 0.00 0.00 48 1009.0
20260506090650 52 235 8.7 12.2 0.00 0.00 0.00 48 1008.0
20260506090145 53 247 9.6 13.0 0.00 0.00 0.00 48 1008.0
20260506085645 53 242 9.6 12.2 0.00 0.00 0.00 47 1008.0
20260506085145 53 243 9.6 13.9 0.00 0.00 0.00 46 1008.0
20260506084644 53 240 11.3 12.2 0.00 0.00 0.00 46 1008.0
20260506084145 53 243 10.4 13.9 0.00 0.00 0.00 46 1008.0
20260506083645 53 240 12.2 18.2 0.00 0.00 0.00 46 1008.0
20260506083144 53 253 10.4 13.9 0.00 0.00 0.00 45 1008.0
20260506082644 53 247 11.3 14.8 0.00 0.00 0.00 45 1008.0
20260506082144 53 244 11.3 13.9 0.00 0.00 0.00 45 1008.0
20260506081644 53 244 11.3 14.8 0.00 0.00 0.00 45 1008.0
20260506081144 53 250 12.2 15.6 0.00 0.00 0.00 45 1008.0
20260506080644 53 247 10.4 13.9 0.00 0.00 0.00 45 1008.0
20260506080145 52 251 10.4 13.9 0.00 0.00 0.00 45 1009.0
20260506073145 52 256 9.6 12.2 0.00 0.00 0.00 42 1009.0
20260506072646 52 249 9.6 13.0 0.00 0.00 0.00 42 1009.0
20260506072145 53 248 8.7 11.3 0.00 0.00 0.00 41 1009.0
20260506071645 53 260 8.7 11.3 0.00 0.00 0.00 41 1009.0
20260506071145 53 255 8.7 11.3 0.00 0.00 0.00 40 1009.0
20260506070645 53 255 8.7 11.3 0.00 0.00 0.00 40 1009.0
20260506070145 53 253 7.8 9.6 0.00 0.00 0.00 40 1009.0
20260506062145 54 244 6.1 7.8 0.00 0.00 0.00 37 1008.0
20260506061645 54 258 7.0 8.7 0.00 0.00 0.00 37 1008.0
20260506061144 54 257 7.0 8.7 0.00 0.00 0.00 37 1008.0
20260506060644 55 251 6.1 7.8 0.00 0.00 0.00 36 1008.0
20260506060144 55 242 7.0 8.7 0.00 0.00 0.00 36 1008.0
20260506051144 56 247 7.0 11.3 0.00 0.00 0.00 36 1007.0
20260506050644 57 246 8.7 12.2 0.00 0.00 0.00 36 1007.0
20260506050144 57 251 8.7 13.0 0.00 0.00 0.00 36 1007.0
20260506044644 57 248 8.7 13.9 0.00 0.00 0.00 36 1007.0
20260506044144 57 255 8.7 11.3 0.00 0.00 0.00 35 1007.0
20260506043645 57 247 8.7 12.2 0.00 0.00 0.00 36 1007.0
20260506043144 58 242 7.8 11.3 0.00 0.00 0.00 36 1007.0
20260506042645 58 234 8.7 12.2 0.00 0.00 0.00 35 1007.0
20260506042144 58 240 7.8 11.3 0.00 0.00 0.00 35 1007.0
20260506041645 58 222 10.4 14.8 0.00 0.00 0.00 35 1006.0
20260506041145 58 229 8.7 9.6 0.00 0.00 0.00 35 1006.0
20260506040646 58 240 7.0 9.6 0.00 0.00 0.00 35 1006.0
20260506040147 59 223 7.8 11.3 0.00 0.00 0.00 34 1006.0
20260506035644 59 232 7.8 11.3 0.00 0.00 0.00 34 1006.0
20260506035145 59 238 8.7 11.3 0.00 0.00 0.00 33 1006.0
20260506034644 59 235 7.8 9.6 0.00 0.00 0.00 33 1006.0
20260506034144 60 239 8.7 12.2 0.00 0.00 0.00 33 1006.0
20260506033645 60 226 7.8 13.0 0.00 0.00 0.00 33 1005.0
20260506033144 60 241 9.6 13.9 0.00 0.00 0.00 33 1005.0
20260506032645 60 232 13.0 15.6 0.00 0.00 0.00 32 1005.0
20260506032145 60 236 13.0 14.8 0.00 0.00 0.00 32 1005.0
20260506031646 61 224 8.7 11.3 0.00 0.00 0.00 31 1005.0
20260506031145 61 222 7.8 12.2 0.00 0.00 0.00 31 1004.0
20260506030644 62 248 8.7 13.0 0.00 0.00 0.00 31 1004.0
20260506030144 62 238 11.3 18.2 0.00 0.00 0.00 30 1004.0
20260506025645 62 236 20.0 25.2 0.00 0.00 0.00 30 1004.0
20260506025144 62 246 13.9 19.1 0.00 0.00 0.00 30 1004.0
20260506024647 62 228 13.0 21.7 0.00 0.00 0.00 30 1004.0
20260506024147 63 231 13.0 19.1 0.00 0.00 0.00 29 1003.0
20260506023647 63 219 11.3 19.1 0.00 0.00 0.00 29 1003.0
20260506023145 63 226 16.5 20.9 0.00 0.00 0.00 29 1003.0
20260506022644 63 213 14.8 20.0 0.00 0.00 0.00 28 1003.0
20260506022146 63 234 17.4 23.5 0.00 0.00 0.00 29 1003.0
20260506021645 64 233 15.6 21.7 0.00 0.00 0.00 28 1002.0
20260506021146 64 237 13.0 20.9 0.00 0.00 0.00 28 1002.0
20260506020645 64 238 13.0 18.2 0.00 0.00 0.00 28 1003.0
20260506020147 64 230 13.0 20.9 0.00 0.00 0.00 28 1002.0
20260506015644 65 236 10.4 14.8 0.00 0.00 0.00 28 1002.0
20260506015145 65 238 11.3 14.8 0.00 0.00 0.00 28 1002.0
20260506014645 65 253 11.3 20.0 0.00 0.00 0.00 27 1002.0
20260506014145 66 261 18.2 26.1 0.00 0.00 0.00 27 1001.0
20260506013644 66 268 18.2 23.5 0.00 0.00 0.00 27 1001.0
20260506013145 67 254 16.5 20.0 0.00 0.00 0.00 27 1001.0
20260506012644 67 251 13.0 19.1 0.00 0.00 0.00 26 1000.0
20260506012144 68 262 17.4 20.9 0.00 0.00 0.00 25 1000.0
20260506011644 68 262 18.2 23.5 0.00 0.00 0.00 24 1000.0
20260506011144 69 272 20.0 20.9 0.00 0.00 0.00 24 999.0
20260506010645 69 240 18.2 25.2 0.00 0.00 0.00 23 999.0
20260506010145 69 222 16.5 20.9 0.00 0.00 0.00 24 999.0
20260506005644 69 213 11.3 20.0 0.00 0.00 0.00 23 999.0
20260506005144 70 226 16.5 25.2 0.00 0.00 0.00 23 999.0
20260506004644 70 214 16.5 21.7 0.00 0.00 0.00 23 999.0
20260506004145 70 226 19.1 25.2 0.00 0.00 0.00 23 999.0
20260506003645 69 223 20.9 27.8 0.00 0.00 0.00 23 999.0
20260506003145 69 232 18.2 23.5 0.00 0.00 0.00 23 999.0
20260506002645 69 226 19.1 22.6 0.00 0.00 0.00 23 999.0
20260506002145 70 225 18.2 28.7 0.00 0.00 0.00 23 998.0
20260506001645 71 221 13.0 25.2 0.00 0.00 0.00 23 998.0
20260506001144 71 220 16.5 22.6 0.00 0.00 0.00 23 998.0
20260506000645 71 223 18.2 26.1 0.00 0.00 0.00 23 998.0
20260506000145 72 218 13.9 25.2 0.00 0.00 0.00 22 998.0
20260505235645 72 227 20.9 28.7 0.00 0.00 0.00 22 998.0
20260505235144 72 232 20.0 25.2 0.00 0.00 0.00 21 998.0
20260505234644 72 209 20.0 25.2 0.00 0.00 0.00 22 998.0
20260505234144 72 233 16.5 23.5 0.00 0.00 0.00 22 998.0
20260505233645 73 234 22.6 29.5 0.00 0.00 0.00 22 997.0
20260505233145 74 242 20.9 25.2 0.00 0.00 0.00 22 997.0
20260505232644 75 246 23.5 30.4 0.00 0.00 0.00 21 997.0
20260505232145 75 246 17.4 28.7 0.00 0.00 0.00 20 996.0
20260505231644 75 238 15.6 25.2 0.00 0.00 0.00 21 997.0
20260505231145 75 244 14.8 23.5 0.00 0.00 0.00 20 997.0
20260505230644 75 260 20.9 27.8 0.00 0.00 0.00 21 997.0
20260505230144 75 244 17.4 22.6 0.00 0.00 0.00 20 997.0
20260505225644 75 220 19.1 32.2 0.00 0.00 0.00 20 997.0
20260505225145 75 230 23.5 34.8 0.00 0.00 0.00 20 997.0
20260505224645 74 210 21.7 35.6 0.00 0.00 0.00 20 997.0
20260505224144 75 222 21.7 30.4 0.00 0.00 0.00 20 997.0
20260505223644 75 239 29.5 35.6 0.00 0.00 0.00 19 997.0
20260505223144 75 250 22.6 35.6 0.00 0.00 0.00 19 997.0
20260505222645 75 241 26.1 34.8 0.00 0.00 0.00 19 997.0
20260505222145 75 261 20.0 26.1 0.00 0.00 0.00 19 997.0
20260505221646 76 228 22.6 33.9 0.00 0.00 0.00 18 997.0
20260505221145 76 256 25.2 27.8 0.00 0.00 0.00 18 997.0
20260505220647 75 255 15.6 30.4 0.00 0.00 0.00 18 997.0
20260505220146 76 246 26.1 33.0 0.00 0.00 0.00 18 997.0
20260505215644 76 243 25.2 28.7 0.00 0.00 0.00 18 996.0
20260505215145 77 256 22.6 28.7 0.00 0.00 0.00 17 997.0
20260505214645 77 226 15.6 26.9 0.00 0.00 0.00 18 997.0
20260505214145 78 237 26.1 35.6 0.00 0.00 0.00 17 996.0
20260505213644 77 231 18.2 26.1 0.00 0.00 0.00 18 996.0
20260505213145 77 244 19.1 23.5 0.00 0.00 0.00 18 997.0
20260505212646 77 230 19.1 27.8 0.00 0.00 0.00 18 997.0
20260505212145 77 232 21.7 26.9 0.00 0.00 0.00 18 997.0
20260505211644 76 259 24.3 29.5 0.00 0.00 0.00 18 997.0
20260505211146 76 249 15.6 33.9 0.00 0.00 0.00 19 998.0
20260505210646 75 250 22.6 33.9 0.00 0.00 0.00 19 998.0
20260505210144 75 236 19.1 33.9 0.00 0.00 0.00 18 998.0
20260505205645 75 256 18.2 28.7 0.00 0.00 0.00 18 998.0
20260505205146 74 229 21.7 34.8 0.00 0.00 0.00 18 998.0
20260505204645 74 242 21.7 34.8 0.00 0.00 0.00 18 998.0
20260505204145 75 217 21.7 28.7 0.00 0.00 0.00 17 998.0
20260505203645 75 241 19.1 34.8 0.00 0.00 0.00 17 998.0
20260505203145 76 223 20.9 30.4 0.00 0.00 0.00 16 997.0
20260505202645 76 224 25.2 35.6 0.00 0.00 0.00 16 997.0
20260505202146 77 234 24.3 33.9 0.00 0.00 0.00 16 997.0